[TLELIST] Archives

 

[TLELIST] Current TLEs

November 2nd 2023 PDT

HST 1 20580U 90037B 23305.79057581 .00005794 00000-0 29511-3 0 9995 2 20580 28.4695 71.5488 0003088 72.9943 52.0612 15.14654525642339 ISS (ZARYA) 1 25544U 98067A 23306.44342507 .00023588 00000-0 41988-3 0 9992 2 25544 51.6448 3.7234 0000980 73.9513 20.8531 15.50011514423230 CXO 1 25867U 99040B 23308.09860768 .00000840 00000-0 00000-0 0 9992 2 25867 37.5545 178.9438 9042195 277.0457 359.9147 0.37812199 13700 ...Continue Reading

[TLELIST] Current TLEs

November 1st 2023 PDT

HST 1 20580U 90037B 23304.80138049 .00005943 00000-0 30305-3 0 9994 2 20580 28.4692 78.1447 0003056 63.6283 56.8639 15.14643379642182 ISS (ZARYA) 1 25544U 98067A 23305.41180620 .00021684 00000-0 38744-3 0 9995 2 25544 51.6450 8.8360 0001085 75.1469 19.4675 15.49958906423078 CXO 1 25867U 99040B 23308.09860768 .00000840 00000-0 00000+0 0 9991 2 25867 37.5545 178.9438 9042195 277.0457 359.9147 0.37812199 24869 ...Continue Reading

[TLELIST] Current TLEs

October 31st 2023 PDT

HST 1 20580U 90037B 23304.08301971 .00006044 00000-0 30842-3 0 9999 2 20580 28.4689 82.9346 0003036 57.1969 98.4889 15.14635220642349 ISS (ZARYA) 1 25544U 98067A 23304.37776064 .00024073 00000-0 42978-3 0 9991 2 25544 51.6454 13.9572 0000962 84.8111 356.2587 15.49915139422915 CXO 1 25867U 99040B 23305.45457489 .00000772 00000-0 00000+0 0 9994 2 25867 37.5358 179.2850 9043063 276.7581 359.9996 0.37811789 24857 ...Continue Reading

[TLELIST] Current TLEs

October 30th 2023 PDT

HST 1 20580U 90037B 23302.82944160 .00006809 00000-0 34887-3 0 9994 2 20580 28.4684 91.2933 0003006 44.9867 101.7506 15.14620319641882 ISS (ZARYA) 1 25544U 98067A 23303.21001433 .00009405 00000-0 17347-3 0 9998 2 25544 51.6466 19.7392 0000580 58.2980 342.9216 15.49848495422738 CXO 1 25867U 99040B 23305.45457489 .00000772 00000-0 00000+0 0 9994 2 25867 37.5358 179.2850 9043063 276.7581 359.9996 0.37811789 24857 ...Continue Reading

[TLELIST] Current TLEs

October 29th 2023 PDT

HST 1 20580U 90037B 23301.90449987 .00006646 00000-0 34039-3 0 9997 2 20580 28.4680 97.4608 0002968 35.8704 97.4773 15.14608481641748 ISS (ZARYA) 1 25544U 98067A 23302.38598730 .00026134 00000-0 46755-3 0 9999 2 25544 51.6433 23.8192 0000578 62.3995 58.1939 15.49806251422603 CXO 1 25867U 99040B 23302.81164719 .00000747 00000-0 00000-0 0 9995 2 25867 37.5137 179.6876 9042870 276.4188 0.2473 0.37812427 13695 ...Continue Reading

[TLELIST] Current TLEs

October 28th 2023 PDT

HST 1 20580U 90037B 23300.85223891 .00005882 00000-0 30027-3 0 9998 2 20580 28.4681 104.4774 0002907 25.1041 119.2974 15.14594696641581 ISS (ZARYA) 1 25544U 98067A 23301.35186652 -.00161823 00000-0 -29199-2 0 9990 2 25544 51.6407 28.9449 0001051 56.8139 50.3788 15.49678525422449 CXO 1 25867U 99040B 23302.81164719 .00000747 00000-0 00000-0 0 9995 2 25867 37.5137 179.6876 9042870 276.4188 0.2473 0.37812427 13695 ...Continue Reading

[TLELIST] Current TLEs

October 28th 2023 PDT

HST 1 20580U 90037B 23300.85223891 .00005882 00000-0 30027-3 0 9998 2 20580 28.4681 104.4774 0002907 25.1041 119.2974 15.14594696641581 ISS (ZARYA) 1 25544U 98067A 23301.35186652 -.00161823 00000-0 -29199-2 0 9990 2 25544 51.6407 28.9449 0001051 56.8139 50.3788 15.49678525422449 CXO 1 25867U 99040B 23302.81164719 .00000747 00000-0 00000-0 0 9995 2 25867 37.5137 179.6876 9042870 276.4188 0.2473 0.37812427 13695 ...Continue Reading

[TLELIST] Current TLEs

October 27th 2023 PDT

HST 1 20580U 90037B 23300.19726632 .00006055 00000-0 30945-3 0 9998 2 20580 28.4679 108.8445 0002875 18.1297 147.9057 15.14588238641754 ISS (ZARYA) 1 25544U 98067A 23300.38648537 .00013263 00000-0 24257-3 0 9990 2 25544 51.6409 33.7238 0000691 101.2259 16.5521 15.49691000422293 CXO 1 25867U 99040B 23300.16782697 .00000861 00000-0 00000-0 0 9999 2 25867 37.4901 180.1207 9040477 276.0599 0.3478 0.37812255 13674 ...Continue Reading

[TLELIST] Current TLEs

October 27th 2023 PDT

HST 1 20580U 90037B 23300.19726632 .00006055 00000-0 30945-3 0 9998 2 20580 28.4679 108.8445 0002875 18.1297 147.9057 15.14588238641754 ISS (ZARYA) 1 25544U 98067A 23300.38648537 .00013263 00000-0 24257-3 0 9990 2 25544 51.6409 33.7238 0000691 101.2259 16.5521 15.49691000422293 CXO 1 25867U 99040B 23300.16782697 .00000861 00000-0 00000-0 0 9999 2 25867 37.4901 180.1207 9040477 276.0599 0.3478 0.37812255 13674 ...Continue Reading

[TLELIST] Current TLEs

October 27th 2023 PDT

HST 1 20580U 90037B 23300.19726632 .00006055 00000-0 30945-3 0 9998 2 20580 28.4679 108.8445 0002875 18.1297 147.9057 15.14588238641754 ISS (ZARYA) 1 25544U 98067A 23300.38648537 .00013263 00000-0 24257-3 0 9990 2 25544 51.6409 33.7238 0000691 101.2259 16.5521 15.49691000422293 CXO 1 25867U 99040B 23300.16782697 .00000861 00000-0 00000-0 0 9999 2 25867 37.4901 180.1207 9040477 276.0599 0.3478 0.37812255 13674 ...Continue Reading
  • This mailing list is a public mailing list - anyone may join or leave, at any time.
  • This mailing list is announce-only.

International Space Station (ISS) / Hubble Space Telescope (HST) / Chandra X-Ray Observatory Orbital Data via EMAIL

Privacy Policy:

Private list